シュピターラー彗星

113P/Spitaler (2022)

English version
Home page
Updated on July 3, 2021

---------------------------------------------------------------------

・ プロフィール

・ 軌道要素

Epoch 2022 May 21.0 TT = JDT 2459720.5
T 2022 June 1.43055 TT                                  Rudenko
q   2.1417092            (2000.0)            P               Q
n   0.13900553     Peri.  115.51500     +0.46346460     -0.88302465
a   3.6907503      Node   306.67458     +0.77630561     +0.44485162
e   0.4197090      Incl.    5.29004     +0.42725889     +0.14958110
P   7.09
From 520 observations 1986 Sept. 30-2021 June 19, mean residual 0".9.
     Nongravitational parameters A1 = +0.11, A2 = -0.0018.

・ 光度変化

        m1 = 13.5 + 5 logΔ + 10.0 log r(t - 40)

---------------------------------------------------------------------

軌道要素はM.P.E.C. 2021-N06に掲載されたものです。
光度グラフはComet for Windowsで作成したものです。

---------------------------------------------------------------------

Copyright(C) Seiichi Yoshida (comet@aerith.net). All rights reserved.